Location: ???? ???? ?????
(31.2680°N, 31.7283°E)
Time: 19:50:10
(UTC+00:00)

Cosmos 2341 Rocket - Pass Details

Date: 13 July 2020
Orbit: 968 x 1004 km, 82.9° (Epoch: 05 August)

Event Time Altitude Azimuth Distance (km) Brightness Sun altitude
Exits shadow 19:58:40 72° 56° (NE) 1,019 3.9 -29.7°
Drops below altitude 10° 20:04:25 10° 10° (N) 2,714 6.9 -30.4°
Sets 20:06:56 0° 8° (N) 3,663 7.7 -30.6°
